Location: Unspecified
(29.9680°N, 0.0000°E)
Time: 03:57:04
(UTC+00:00)

A-11 Canister half - All Passes

Search period start: 25 June 2019 00:00
Search period end: 05 July 2019 00:00
Orbit: 1516 x 1684 km, 47.2° (Epoch: 23 June)

Date Brightness Start Highest point End Pass type
(mag) Time Alt. Az. Time Alt. Az. Time Alt. Az.
25 Jun - 06:13:39 10° SSE 06:18:43 15° ESE 06:23:44 10° E daylight
25 Jun - 08:12:36 10° SW 08:22:38 68° SE 08:32:26 10° NE daylight
25 Jun - 10:18:34 10° W 10:28:05 45° NNW 10:37:22 10° NE daylight
25 Jun - 12:27:22 10° WNW 12:35:27 28° N 12:43:19 10° NE daylight
25 Jun - 14:34:08 10° NW 14:43:00 39° NNE 14:51:35 10° E daylight
25 Jun - 16:39:08 10° NW 16:48:38 80° SW 16:57:52 10° SE daylight
25 Jun - 18:46:42 10° W 18:52:27 18° SW 18:58:12 10° SSW daylight
26 Jun - 05:51:38 10° SSE 05:55:51 13° ESE 06:00:03 10° E daylight
26 Jun - 07:49:45 10° SSW 07:59:43 63° SE 08:09:29 10° NE daylight
26 Jun - 09:55:27 10° W 10:05:04 48° NNW 10:14:27 10° NE daylight
26 Jun - 12:04:12 10° WNW 12:12:22 28° N 12:20:17 10° NE daylight
26 Jun - 14:11:09 10° NW 14:19:59 38° NNE 14:28:30 10° E daylight
26 Jun - 16:16:12 10° NW 16:25:44 85° SW 16:35:01 10° SE daylight
26 Jun - 18:23:22 10° W 18:29:37 20° SW 18:35:51 10° SSW daylight
27 Jun - 05:29:55 10° SE 05:33:00 12° ESE 05:36:03 10° ESE daylight
27 Jun - 07:26:53 10° SSW 07:36:47 59° SE 07:46:30 10° ENE daylight
27 Jun - 09:32:19 10° WSW 09:42:03 50° NNW 09:51:32 10° NE daylight
27 Jun - 11:41:03 10° WNW 11:49:16 28° N 11:57:15 10° NE daylight
27 Jun - 13:48:10 10° NW 13:56:57 36° NNE 14:05:25 10° E daylight
27 Jun - 15:53:14 10° NW 16:02:50 90° SW 16:12:08 10° SE daylight
27 Jun - 18:00:06 10° WNW 18:06:48 22° SW 18:13:26 10° S daylight
28 Jun - 05:09:26 10° SE 05:10:08 10° ESE 05:10:50 10° ESE daylight
28 Jun - 07:04:04 10° SSW 07:13:53 55° SE 07:23:31 10° ENE daylight
28 Jun - 09:09:14 10° WSW 09:19:02 52° NNW 09:28:37 10° NE daylight
28 Jun - 11:17:53 10° WNW 11:26:10 29° N 11:34:14 10° NE daylight
28 Jun - 13:25:12 10° NW 13:33:54 35° NNE 13:42:19 10° E daylight
28 Jun - 15:30:17 10° NW 15:39:55 86° NE 15:49:14 10° SE daylight
28 Jun - 17:36:53 10° WNW 17:43:58 25° SW 17:50:58 10° S daylight
29 Jun - 06:41:16 10° SSW 06:50:58 52° SE 07:00:31 10° ENE daylight
29 Jun - 08:46:09 10° WSW 08:56:02 55° NNW 09:05:43 10° NE daylight
29 Jun - 10:54:43 10° WNW 11:03:04 29° N 11:11:13 10° NE daylight
29 Jun - 13:02:12 10° NW 13:10:51 34° NNE 13:19:14 10° E daylight
29 Jun - 15:07:20 10° NW 15:17:00 81° NE 15:26:19 10° SE daylight
29 Jun - 17:13:42 10° WNW 17:21:08 27° SW 17:28:28 10° S daylight
30 Jun - 06:18:29 10° SSW 06:28:03 48° SE 06:37:31 10° ENE daylight
30 Jun - 08:23:03 10° WSW 08:33:02 58° NNW 08:42:47 10° NE daylight
30 Jun - 10:31:32 10° WNW 10:39:59 30° N 10:48:13 10° NE daylight
30 Jun - 12:39:11 10° NW 12:47:49 33° NNE 12:56:09 10° ENE daylight
30 Jun - 14:44:24 10° NW 14:54:04 77° NE 15:03:24 10° SE daylight
30 Jun - 16:50:33 10° WNW 16:58:18 29° SW 17:05:54 10° S daylight
01 Jul - 05:55:44 10° SSW 06:05:09 45° SE 06:14:29 10° ENE daylight
01 Jul - 08:00:01 10° WSW 08:10:02 61° NW 08:19:52 10° NE daylight
01 Jul - 10:08:21 10° WNW 10:16:53 30° NNW 10:25:13 10° NE daylight
01 Jul - 12:16:10 10° NW 12:24:44 32° NNE 12:33:02 10° ENE daylight
01 Jul - 14:21:26 10° NW 14:31:09 73° NE 14:40:28 10° ESE daylight
01 Jul - 16:27:25 10° WNW 16:35:27 32° SW 16:43:20 10° S daylight
02 Jul - 05:32:59 10° SSW 05:42:15 41° SE 05:51:27 10° ENE daylight
02 Jul - 07:36:57 10° WSW 07:47:02 64° NW 07:56:57 10° NE daylight
02 Jul - 09:45:10 10° WNW 09:53:47 31° NNW 10:02:14 10° NE daylight
02 Jul - 11:53:08 10° NW 12:01:40 31° NNE 12:09:56 10° ENE daylight
02 Jul - 13:58:30 10° NW 14:08:12 69° NE 14:17:31 10° ESE daylight
02 Jul - 16:04:19 10° WNW 16:12:37 35° SW 16:20:43 10° S daylight
03 Jul - 05:10:17 10° SSW 05:19:22 38° SE 05:28:23 10° ENE daylight
03 Jul - 07:13:55 10° WSW 07:24:02 68° NW 07:34:02 10° NE daylight
03 Jul - 09:21:59 10° WNW 09:30:42 32° NNW 09:39:14 10° NE daylight
03 Jul - 11:30:05 10° NW 11:38:35 31° NNE 11:46:50 10° ENE daylight
03 Jul - 13:35:33 10° NW 13:45:15 65° NE 13:54:33 10° ESE daylight
03 Jul - 15:41:15 10° WNW 15:49:46 38° SW 15:58:05 10° SSE daylight
04 Jul - 04:47:36 10° S 04:56:28 36° SE 05:05:18 10° ENE daylight
04 Jul - 06:50:54 10° WSW 07:01:04 72° NW 07:11:07 10° NE daylight
04 Jul - 08:58:48 10° WNW 09:07:37 33° NNW 09:16:15 10° NE daylight
04 Jul - 11:07:02 10° NW 11:15:30 30° N 11:23:43 10° ENE daylight
04 Jul - 13:12:36 10° NW 13:22:17 62° NE 13:31:35 10° ESE daylight
04 Jul - 15:18:10 10° WNW 15:26:54 41° SW 15:35:25 10° SSE daylight
